BREEZE-M R/B, 40385

Orbit data source: Space-Track

BREEZE-M R/B, 40385 is space debris in HEO originally from a launch on Sun, 01 Feb 2015 UTC launched from the Tyuratam Missile And Space Complex (TTMTR). Debris objects in space refer to the collection of defunct objects orbiting the Earth. Examples of debris include non-operational satellites, rocket bodies, and fragments generated from explosions, collisions, or faulty payload assembly.

Loading next visibility...
Identifier
40385, 2015-005B
Orbit
HEO
Last TLE update
13 hours ago
Origin
Manufacturer
Khrunichev
Mission
Spacecraft
Bus & Motor
BRIZ, Unknown motor
Mass
~1,600 kg wet, 1,600 kg dry
Launch date (UTC)
2015-02-01 (10 years ago)
Launch vehicle
Unknown
Launch site
Tyuratam Missile And Space Complex (TTMTR)
Object type
Payload
Rocket body
Debris
Shape & HBR
Cyl, 4 m
Radar Cross Section
14.451 m², Large (>1 m²)

Expand to show TLE details & history

TLE from 13 hours ago
0 BREEZE-M R/B
1 40385U 15005B   25183.30229347 -.00000187  00000-0  00000-0 0  9997
2 40385  27.5258 306.0176 7604488  78.5082 350.6559  1.11108131 42265
Epoch: 2025-07-02T07:15Z
TLE epoch observation values (Epoch: 2025-07-02T07:15:18.155Z)
Latitude
0.00007°
Longitude
-83.39624°
Altitude
8,121.539 km
Speed
6.697 km/s
True Right ascension
20h 24m 03s
True Declination
0° 00' 00"
Sunlit
Object was in daylight at epoch
Visualization orbit readout
Latitude
-27.38823°
Longitude
179.8914°
Altitude
61,941.495 km
Speed
1.244 km/s
Apparent Right ascension
14h 15m 38s
Apparent Declination
-30° 12' 29"
Sunlit
Object is in daylight
Visualization observer readout
Local Sidereal Time
07:53:25
Azimuth
111.118° ESE
Elevation
-22.77°
Doppler factor
1
Orbital elements
Apogee altitude
62,947.238 km
Perigee altitude
3,055.24 km
Semi-major axis
39,379.376 km
Eccentricity
0.76045
Inclination
27.5258°
RAAN
306.0176°
Arg. of periapsis
78.5082°
True anomaly
Unknown
Mean anomaly
350.6559°
Eccentric anomaly
Unknown
Mean motion
0.27774 °/min
Orbital period
1,296.17 mins
BSTAR
0
Loading maneuver chart data...
Loading SW <> Apogee altitude chart data...
Loading historical data...
Loading historical data...
Loading historical data...
Loading historical data...
Loading historical data...
Loading historical data...
Loading historical data...
Other satellites on launch #5 in the year 2015 (2015-02-01 UTC)

BREEZE-M R/B Visibility forecast

Observer location: undefined°, undefined°

Span
Click to sort rows by Start time (UTC) header in descending order
Start Az.
Max El. time (UTC)
Max El. Az.
Max El.
End time (UTC)
End Az.
96 mins2025-07-03 02:32:26.100Z148.414° SSE2025-07-03 03:31:26.100Z147.665° SSE11.075°2025-07-03 04:08:26.100Z140.949° SSE
|